Home   Weather   Gloucester   Past weeks

Flag for USA Past Weather in Gloucester, Massachusetts, USA — Yesterday and Last 2 Weeks

Now
61 °F

Mostly cloudy.


Feels Like: 61 °F
Forecast: 59 / 67 °F
Wind: 5 mph from South

Location: Beverly Municipal Airport

Current Time: Sep 27, 2016 at 4:57:24 AM

Latest Report: Sep 27, 2016 at 3:53 AM


Visibility: 10 mi

Pressure: 29.91 "Hg

Humidity: 75%

Dew Point: 53 °F

Location of GloucesterLocation

Past Weather in Gloucester — Graph

°F

Gloucester Temperature Yesterday

Maximum temperature yesterday: 64 °F (at 1:53 PM)
Minimum temperature yesterday: 39 °F (at 3:53 AM)
Average temperature yesterday: 54 °F

High & Low Weather Summary for the Past Weeks

 TemperatureHumidityPressure
High89 °F (Sep 14, 1:53 PM)100% (Sep 17, 2:53 AM)30.35 "Hg (Sep 17, 2:53 AM)
Low39 °F (Sep 26, 3:53 AM)26% (Sep 21, 1:53 PM)29.88 "Hg (Sep 14, 3:53 PM)
Average65 °F73%30.10 "Hg
* Reported Sep 12 2:53 AM — Sep 27 2:53 AM, Gloucester, Weather by CustomWeather, © 2016

Note: Actual official high and low records may vary slightly from our data, if they occured in-between our weather recording intervals... More about our weather records

Advertising

Gloucester Weather History for the Previous 24 Hours

Scroll right to see more
 ConditionsComfort  
Time TempWeatherWind HumidityBarometerVisibility
2:53 AM
Tue, Sep 27
60 °FMostly cloudy.7 mph75%29.93 "Hg10 mi
1:53 AM60 °FOvercast.8 mph72%29.96 "Hg10 mi
12:53 AM59 °FOvercast.6 mph75%29.98 "Hg10 mi
11:53 PM
Mon, Sep 26
59 °FOvercast.6 mph72%30.00 "Hg10 mi
10:53 PM57 °FPassing clouds.6 mph72%30.03 "Hg10 mi
9:53 PM57 °FClear.6 mph72%30.04 "Hg10 mi
8:53 PM57 °FClear.5 mph72%30.04 "Hg10 mi
7:53 PM57 °FClear.7 mph72%30.04 "Hg10 mi
6:53 PM58 °FClear.7 mph70%30.06 "Hg10 mi
5:53 PM58 °FSunny.9 mph65%30.07 "Hg10 mi
4:53 PM61 °FSunny.9 mph54%30.09 "Hg10 mi
3:53 PM62 °FSunny.12 mph50%30.10 "Hg10 mi
2:53 PM64 °FSunny.9 mph45%30.10 "Hg10 mi
1:53 PM64 °FSunny.8 mph45%30.12 "Hg10 mi
12:53 PM62 °FSunny.No wind43%30.14 "Hg10 mi
11:53 AM62 °FSunny.9 mph43%30.16 "Hg10 mi
11:03 AM61 °FSunny.5 mph46%30.19 "Hg2 mi
10:53 AM60 °FSunny.No wind46%30.18 "Hg10 mi
9:53 AM57 °FSunny.3 mph55%30.20 "Hg10 mi
8:53 AM53 °FSunny.No wind69%30.20 "Hg10 mi
7:53 AM46 °FSunny.No wind89%30.21 "Hg10 mi
6:53 AM40 °FSunny.No wind97%30.20 "Hg10 mi
5:53 AM39 °FClear.No wind93%30.18 "Hg10 mi
4:53 AM40 °FClear.No wind97%30.17 "Hg10 mi
Weather by CustomWeather, © 2016

See weather overviewHow to use our weather pages